Location: Unspecified
(0.0000°N, 0.0000°E)
Time: 18:05:33
(UTC+00:00)

N. Korean satellite - Visible Passes

Search period start: 25 February 2017 00:00
Search period end: 07 March 2017 00:00
Orbit: 463 x 518 km, 97.2° (Epoch: 24 February)

Date Brightness Start Highest point End Pass type
(mag) Time Alt. Az. Time Alt. Az. Time Alt. Az.
25 Feb 9.0 19:17:47 10° SSW 19:20:59 27° W 19:24:11 10° NW visible
26 Feb 7.2 18:54:53 10° S 18:58:36 64° W 19:02:20 10° NNW visible
27 Feb 6.8 18:32:35 10° SSE 18:36:14 50° E 18:39:53 10° N visible
28 Feb 10.4 19:46:26 10° WSW 19:47:09 10° W 19:47:52 10° W visible
01 Mar 9.3 19:21:44 10° SSW 19:24:46 23° W 19:27:48 10° NW visible
02 Mar 7.5 18:58:42 10° S 19:02:23 54° W 19:06:04 10° NNW visible
03 Mar 6.7 18:36:15 10° SSE 18:40:00 60° ENE 18:43:42 10° N visible
05 Mar 9.5 19:25:39 10° SSW 19:28:29 20° W 19:31:19 10° NW visible
06 Mar 7.9 19:02:26 10° S 19:06:05 46° W 19:09:42 10° NNW visible
